| time (UTC) | temp C | wind direction | speed KPH | gust KPH | rain 1hr cm | rain 24hr cm | rain mn cm | humidity % | barometer mb |
| 20260504081552 | 8 | 78 | 16.1 | 29.0 | 0.00 | 0.00 | 0.00 | 59 | 1011.4 |
| 20260504050014 | 12 | 36 | 16.1 | 27.4 | 0.00 | 0.00 | 0.00 | 38 | 1007.6 |
| 20260504044516 | 12 | 29 | 17.7 | 32.2 | 0.00 | 0.00 | 0.00 | 37 | 1007.1 |
| 20260504043014 | 13 | 46 | 20.9 | 43.5 | 0.00 | 0.00 | 0.00 | 36 | 1006.7 |
| 20260504041514 | 15 | 34 | 17.7 | 38.6 | 0.00 | 0.00 | 0.00 | 37 | 1006.0 |
| 20260504040013 | 15 | 16 | 9.7 | 19.3 | 0.00 | 0.00 | 0.00 | 37 | 1005.2 |
| 20260504034513 | 15 | 360 | 11.3 | 22.5 | 0.00 | 0.00 | 0.00 | 36 | 1004.8 |
| 20260504033014 | 15 | 11 | 11.3 | 22.5 | 0.00 | 0.00 | 0.00 | 36 | 1004.5 |
| 20260504031511 | 16 | 333 | 8.0 | 16.1 | 0.00 | 0.00 | 0.00 | 35 | 1004.4 |
| 20260504030011 | 16 | 73 | 9.7 | 25.7 | 0.00 | 0.00 | 0.00 | 33 | 1004.2 |
| 20260504024510 | 17 | 40 | 14.5 | 25.7 | 0.00 | 0.00 | 0.00 | 32 | 1004.0 |
| 20260504023010 | 17 | 36 | 14.5 | 22.5 | 0.00 | 0.00 | 0.00 | 29 | 1004.0 |
| 20260504021509 | 18 | 13 | 12.9 | 27.4 | 0.00 | 0.00 | 0.00 | 27 | 1003.8 |
| 20260504020009 | 20 | 338 | 16.1 | 25.7 | 0.00 | 0.00 | 0.00 | 25 | 1003.8 |
| 20260504014508 | 21 | 317 | 11.3 | 25.7 | 0.00 | 0.00 | 0.00 | 23 | 1003.7 |
| 20260504013012 | 21 | 346 | 9.7 | 19.3 | 0.00 | 0.00 | 0.00 | 22 | 1003.7 |
| 20260504011507 | 21 | 317 | 11.3 | 20.9 | 0.00 | 0.00 | 0.00 | 21 | 1003.8 |
| 20260504010006 | 22 | 321 | 12.9 | 25.7 | 0.00 | 0.00 | 0.00 | 22 | 1003.9 |
| 20260504004506 | 22 | 332 | 11.3 | 30.6 | 0.00 | 0.00 | 0.00 | 22 | 1004.0 |
| 20260504003004 | 22 | 314 | 11.3 | 25.7 | 0.00 | 0.00 | 0.00 | 21 | 1004.1 |
| 20260504001502 | 22 | 323 | 14.5 | 27.4 | 0.00 | 0.00 | 0.00 | 21 | 1004.2 |
| 20260504000002 | 23 | 323 | 9.7 | 24.1 | 0.00 | 0.00 | 0.00 | 20 | 1004.2 |
| 20260503234503 | 23 | 304 | 14.5 | 24.1 | 0.00 | 0.00 | 0.00 | 20 | 1004.2 |
| 20260503233104 | 23 | 325 | 12.9 | 25.7 | 0.00 | 0.00 | 0.00 | 20 | 1004.2 |
| 20260503231559 | 23 | 313 | 8.0 | 22.5 | 0.00 | 0.00 | 0.00 | 20 | 1004.3 |
| 20260503230100 | 23 | 300 | 11.3 | 33.8 | 0.00 | 0.00 | 0.00 | 20 | 1004.5 |
| 20260503224556 | 23 | 299 | 11.3 | 27.4 | 0.00 | 0.00 | 0.00 | 21 | 1004.6 |
| 20260503223055 | 23 | 302 | 14.5 | 24.1 | 0.00 | 0.00 | 0.00 | 20 | 1004.8 |
| 20260503221559 | 23 | 320 | 12.9 | 30.6 | 0.00 | 0.00 | 0.00 | 19 | 1005.1 |
| 20260503214549 | 23 | 290 | 12.9 | 20.9 | 0.00 | 0.00 | 0.00 | 20 | 1005.5 |
| 20260503213048 | 22 | 331 | 9.7 | 20.9 | 0.00 | 0.00 | 0.00 | 21 | 1005.6 |
| 20260503211544 | 23 | 315 | 14.5 | 24.1 | 0.00 | 0.00 | 0.00 | 21 | 1005.9 |
| 20260503210050 | 22 | 291 | 12.9 | 19.3 | 0.00 | 0.00 | 0.00 | 22 | 1006.1 |
| 20260503204557 | 22 | 306 | 11.3 | 20.9 | 0.00 | 0.00 | 0.00 | 20 | 1006.3 |
| 20260503203039 | 22 | 296 | 9.7 | 30.6 | 0.00 | 0.00 | 0.00 | 22 | 1006.3 |
| 20260503201538 | 22 | 282 | 12.9 | 22.5 | 0.00 | 0.00 | 0.00 | 20 | 1006.6 |
| 20260503200043 | 22 | 347 | 11.3 | 30.6 | 0.00 | 0.00 | 0.00 | 18 | 1006.8 |
| 20260503194534 | 22 | 300 | 17.7 | 27.4 | 0.00 | 0.00 | 0.00 | 20 | 1007.0 |
| 20260503193034 | 21 | 311 | 11.3 | 27.4 | 0.00 | 0.00 | 0.00 | 19 | 1007.2 |
| 20260503191530 | 22 | 313 | 11.3 | 22.5 | 0.00 | 0.00 | 0.00 | 21 | 1007.3 |
| 20260503190035 | 22 | 338 | 11.3 | 30.6 | 0.00 | 0.00 | 0.00 | 20 | 1007.5 |
| 20260503184528 | 22 | 329 | 12.9 | 29.0 | 0.00 | 0.00 | 0.00 | 22 | 1007.6 |
| 20260503183025 | 21 | 292 | 11.3 | 25.7 | 0.00 | 0.00 | 0.00 | 21 | 1007.9 |
| 20260503181521 | 22 | 317 | 9.7 | 27.4 | 0.00 | 0.00 | 0.00 | 21 | 1008.1 |
| 20260503180019 | 21 | 299 | 11.3 | 20.9 | 0.00 | 0.00 | 0.00 | 22 | 1008.4 |
| 20260503174517 | 21 | 307 | 9.7 | 22.5 | 0.00 | 0.00 | 0.00 | 24 | 1008.5 |
| 20260503173015 | 21 | 294 | 12.9 | 19.3 | 0.00 | 0.00 | 0.00 | 24 | 1008.7 |
| 20260503171511 | 20 | 18 | 4.8 | 20.9 | 0.00 | 0.00 | 0.00 | 25 | 1008.7 |